GEFSNGP_con_probscp_150.txt.gz
Probability
0 0 0 0 0 0 1 1 0 0 0 1 1 0 0 1 2 4 5 5 5 6 6 5 4 4 3 1 1 1 0 0 0 0 0 0 0 0 0 0 0 0 0 0
0 0 0 0 0 1 2 2 1 1 1 2 2 1 1 2 3 4 4 4 5 6 8 7 6 4 4 3 2 2 1 0 0 0 0 0 0 0 0 0 0 0 0 0
0 0 0 0 0 1 3 4 3 3 3 4 4 3 3 3 3 4 4 4 6 8 11 10 8 7 7 7 6 4 2 1 1 1 0 0 0 0 0 0 0 0 0 0
0 0 0 0 0 1 3 5 6 5 5 5 5 4 4 3 3 4 4 6 9 11 13 12 11 10 10 10 9 6 4 2 2 1 1 0 0 0 0 0 0 0 0 0
0 0 0 0 0 0 2 5 6 5 4 4 5 5 4 4 4 4 5 8 12 13 15 16 15 14 13 13 12 7 4 3 1 1 1 0 0 0 0 0 0 0 0 0
0 0 0 0 0 0 1 3 4 2 1 1 3 3 4 4 5 5 6 9 13 16 20 22 20 18 17 16 13 9 5 3 1 0 0 0 0 0 0 0 0 0 0 0
0 0 0 0 0 0 1 1 1 0 0 0 1 1 2 4 6 6 7 10 14 20 25 26 24 21 19 17 13 9 5 3 1 0 0 0 0 0 0 0 0 0 0 0
0 0 0 1 1 1 0 0 0 0 0 0 0 0 2 5 7 7 8 11 16 22 26 28 27 24 19 14 11 7 4 2 1 0 0 0 0 0 1 1 1 0 1 1
0 0 0 1 2 2 1 0 0 0 0 0 0 1 3 5 6 6 9 15 20 24 25 26 26 24 17 10 8 7 4 1 0 0 0 0 0 1 2 3 3 2 1 2
0 0 0 1 2 2 1 1 1 1 1 1 0 1 3 4 3 5 11 18 23 24 23 22 22 20 14 9 7 6 4 2 0 0 0 0 0 1 3 4 3 2 1 1
0 0 0 1 2 2 2 2 2 1 2 2 1 1 3 4 2 4 10 18 22 22 20 19 18 14 10 7 6 5 4 2 1 0 0 0 0 1 1 1 1 1 0 0
0 0 0 2 3 3 3 3 2 1 2 2 2 2 3 3 3 4 8 12 16 18 17 16 14 11 7 5 4 3 3 2 1 0 0 0 0 0 0 0 0 0 0 0
0 0 0 1 1 1 2 2 2 2 2 3 3 3 2 2 2 4 6 7 10 14 15 14 12 9 6 4 3 3 2 1 0 0 0 0 0 0 0 0 0 0 0 0
0 0 0 0 0 0 1 1 1 1 3 4 4 3 3 2 3 3 4 5 7 12 15 14 12 10 7 5 3 2 1 1 0 0 0 0 0 0 0 0 0 0 0 0
0 0 0 0 0 0 0 0 0 1 2 4 4 4 4 3 3 2 4 5 8 12 15 15 14 11 8 6 5 4 3 2 1 0 0 0 0 0 0 0 0 0 0 0
0 0 0 0 0 0 1 0 0 0 2 4 5 4 4 4 3 3 5 7 9 12 14 15 14 12 9 8 7 6 5 3 1 0 0 0 0 0 0 0 0 0 0 0
0 0 0 0 1 1 1 0 0 0 2 3 4 4 4 4 3 3 4 6 8 9 10 11 12 11 9 7 7 6 5 3 1 0 0 0 0 0 0 0 0 0 0 0
0 0 0 0 1 2 1 0 0 0 1 1 2 2 2 2 1 2 2 3 5 6 7 7 8 8 7 7 6 5 4 2 1 0 0 0 0 0 0 0 0 0 0 0
0 0 0 0 1 1 1 0 0 0 0 0 0 0 0 0 0 0 0 1 1 2 4 5 5 5 5 5 5 3 1 1 0 0 0 0 0 0 0 0 0 0 0 0
0 0 0 0 0 0 0 0 0 0 0 0 0 0 0 0 0 0 0 0 0 1 2 3 3 3 4 3 2 1 0 0 0 0 0 0 0 0 0 0 0 0 0 0
0 0 0 0 0 0 0 0 0 0 0 0 0 0 0 0 0 0 0 0 0 0 1 1 2 2 2 2 1 0 0 0 0 0 0 0 0 0 0 0 0 0 0 0
0 0 0 0 0 0 0 0 0 0 0 0 0 0 0 0 0 0 0 0 0 0 0 0 1 1 1 1 0 0 0 0 0 0 0 0 0 0 0 0 0 0 0 0
0 0 0 0 0 0 0 0 0 0 0 0 0 0 0 0 0 0 0 0 0 0 0 0 0 0 0 0 0 0 0 0 0 0 0 0 0 0 0 0 0 0 0 0
0 0 0 0 0 0 0 0 0 0 0 0 0 0 0 0 0 0 0 0 0 0 0 0 0 0 0 0 0 0 0 0 0 0 0 0 0 0 0 0 0 0 0 0
0 0 0 0 0 0 0 0 0 0 0 0 0 0 0 0 0 0 0 0 0 0 0 0 0 0 0 0 0 0 0 0 0 0 0 0 0 0 0 0 0 0 0 0
0 0 0 0 0 0 0 0 0 0 0 0 0 0 0 0 0 0 0 0 0 0 0 0 0 0 0 0 0 0 0 0 0 0 0 0 0 0 0 0 0 0 0 0
0 0 0 0 0 0 0 0 0 0 0 0 0 0 0 0 0 0 0 0 0 0 0 0 0 0 0 0 0 0 0 0 0 0 0 0 0 0 0 0 0 0 0 0

GEFSNGP_con_probscp_156.txt.gz
Probability
0 0 0 0 0 0 0 0 0 0 0 0 0 0 0 0 0 0 0 0 0 0 0 0 0 0 0 0 0 0 0 0 0 0 0 0 0 0 0 0 0 0 0 0
0 0 0 0 0 0 0 0 0 0 0 0 0 0 0 0 0 0 0 0 0 0 0 0 0 0 0 0 0 0 0 0 0 0 0 0 0 0 0 0 0 0 0 0
0 0 0 0 0 0 0 0 0 0 0 0 0 0 0 0 0 0 0 0 0 0 0 0 1 2 1 0 0 0 0 0 0 0 0 0 0 0 0 0 0 0 0 0
0 0 0 0 0 0 0 0 0 0 0 0 0 0 0 0 0 0 0 0 0 0 0 1 2 3 2 1 0 0 0 0 0 0 0 0 0 0 0 0 0 0 0 0
0 0 0 0 0 0 0 0 0 0 0 0 0 0 0 0 0 0 0 0 0 0 0 1 2 3 2 1 0 0 0 0 0 0 0 0 0 0 0 0 0 0 0 0
0 0 0 0 0 0 0 0 0 0 0 0 0 0 0 0 0 0 1 1 1 1 0 1 2 3 3 1 0 0 0 0 1 2 1 1 0 0 0 0 0 0 0 0
0 0 0 0 0 0 0 0 0 0 0 0 0 0 0 0 0 1 2 2 2 2 1 1 2 3 3 2 1 1 1 1 2 3 2 1 0 0 0 0 0 0 0 0
0 0 0 0 0 0 0 0 0 0 0 0 0 0 0 0 0 1 2 2 2 2 1 1 2 3 3 2 2 3 2 2 2 3 3 2 0 0 0 0 0 0 0 0
0 0 0 0 0 0 0 0 0 0 0 0 0 0 0 0 0 0 1 1 1 1 0 0 1 3 4 3 2 3 3 2 2 2 2 1 0 0 0 0 0 0 0 0
0 0 0 0 0 0 0 0 0 0 0 0 0 0 1 1 1 0 0 0 0 0 0 0 0 2 3 3 3 3 3 3 2 2 1 1 0 0 1 1 1 0 0 0
0 0 0 0 0 0 0 0 0 0 1 0 0 1 1 1 1 1 1 0 0 0 0 0 0 0 1 2 3 3 3 3 3 2 1 0 0 0 1 2 1 0 0 0
0 0 0 0 0 0 0 0 0 0 0 0 0 1 1 1 1 1 1 0 0 0 0 0 0 1 1 2 3 3 3 3 3 1 0 0 0 0 1 1 1 0 0 0
0 0 0 0 0 0 0 0 0 0 0 0 0 0 0 0 0 1 1 0 0 0 0 0 1 2 3 3 3 3 3 3 2 1 0 0 0 0 0 0 0 0 0 0
0 0 0 0 0 0 0 0 0 0 0 0 0 0 0 0 0 0 0 0 0 0 1 1 2 3 3 3 3 3 2 1 1 0 0 0 0 0 0 0 0 0 0 0
0 0 0 0 0 0 0 0 0 0 0 0 0 0 0 0 0 0 0 0 0 0 1 2 2 2 2 2 2 2 1 0 0 0 0 0 0 0 0 0 0 0 0 0
0 0 0 0 0 0 0 0 0 0 0 0 0 0 0 0 0 0 0 0 0 0 1 1 1 1 1 1 1 1 0 0 0 0 0 0 0 0 0 0 0 0 0 0
0 0 0 0 0 0 0 0 0 0 0 0 0 0 0 0 0 0 0 0 0 0 0 0 0 0 0 0 0 0 0 0 0 0 0 0 0 0 0 0 0 0 0 0
0 0 0 0 0 0 0 0 0 0 0 0 0 0 0 0 0 0 0 0 0 0 0 0 0 0 0 0 0 0 0 0 0 0 0 0 0 0 0 0 0 0 0 0
0 0 0 0 0 0 0 0 0 0 0 0 0 0 0 0 0 0 0 0 0 0 0 0 0 0 0 0 0 0 0 0 0 0 0 0 0 0 0 0 0 0 0 0
0 0 0 0 0 0 0 0 0 0 0 0 0 0 0 0 0 0 0 0 0 0 0 0 0 0 0 0 0 0 0 0 0 0 0 0 0 0 0 0 0 0 0 0
0 0 0 0 0 0 0 0 0 0 0 0 0 0 0 0 0 0 0 0 0 0 0 0 0 0 0 0 0 0 0 0 0 0 0 0 0 0 0 0 0 0 0 0
0 0 0 0 0 0 0 0 0 0 0 0 0 0 0 0 0 0 0 0 0 0 0 0 0 0 0 0 0 0 0 0 0 0 0 0 0 0 0 0 0 0 0 0
0 0 0 0 0 0 0 0 0 0 0 0 0 0 0 0 0 0 0 0 0 0 0 0 0 0 0 0 0 0 0 0 0 0 0 0 0 0 0 0 0 0 0 0
0 0 0 0 0 0 0 0 0 0 0 0 0 0 0 0 0 0 0 0 0 0 0 0 0 0 0 0 0 0 0 0 0 0 0 0 0 0 0 0 0 0 0 0
0 0 0 0 0 0 0 0 0 0 0 0 0 0 0 0 0 0 0 0 0 0 0 0 0 0 0 0 0 0 0 0 0 0 0 0 0 0 0 0 0 0 0 0
0 0 0 0 0 0 0 0 0 0 0 0 0 0 0 0 0 0 0 0 0 0 0 0 0 0 0 0 0 0 0 0 0 0 0 0 0 0 0 0 0 0 0 0
0 0 0 0 0 0 0 0 0 0 0 0 0 0 0 0 0 0 0 0 0 0 0 0 0 0 0 0 0 0 0 0 0 0 0 0 0 0 0 0 0 0 0 0

GEFSNGP_con_probscp_162.txt.gz
Probability
0 0 0 0 0 0 0 0 0 0 1 1 1 2 3 2 2 5 9 13 16 16 17 16 10 5 3 2 2 3 3 3 1 0 0 0 0 0 0 0 0 0 0 0
0 0 0 0 0 0 0 0 0 0 0 0 1 2 2 2 3 5 8 12 15 16 15 14 11 7 4 3 2 3 3 3 2 0 0 0 0 0 1 1 1 0 0 0
0 0 0 0 0 0 0 0 0 0 0 0 1 1 1 2 4 5 7 10 13 14 14 12 11 9 8 7 5 3 3 2 2 1 1 1 0 0 1 2 2 1 1 0
0 0 0 0 0 0 0 0 0 0 1 0 0 0 1 2 5 7 7 8 10 12 12 10 9 10 11 11 9 6 3 2 2 3 2 1 1 1 1 2 2 3 3 2
0 0 0 0 0 0 0 0 0 0 1 1 0 0 1 2 6 8 7 6 7 10 10 8 8 10 13 14 14 11 8 5 4 5 5 3 3 4 4 4 4 5 5 4
0 0 0 0 0 0 0 0 1 1 1 2 1 1 2 3 5 6 6 6 7 8 9 9 11 15 16 16 18 17 14 11 9 9 8 7 8 8 8 8 7 6 6 6
0 0 0 0 0 0 1 1 2 2 2 3 2 2 2 5 7 7 7 8 8 9 10 11 15 19 20 19 19 18 17 17 17 15 13 12 13 12 11 11 9 7 7 7
0 0 0 1 1 2 3 3 2 3 3 3 3 2 3 6 9 10 10 11 12 13 14 15 17 21 23 22 20 19 18 21 26 26 21 18 19 18 16 14 10 8 8 8
0 0 1 1 2 3 2 2 2 3 5 5 3 2 4 7 10 12 14 16 17 18 19 18 18 22 26 27 26 24 24 27 34 35 30 26 25 24 21 16 11 9 9 8
1 1 1 1 2 2 1 1 2 4 7 8 6 4 6 9 13 15 16 17 18 21 23 22 22 25 29 33 35 34 34 36 39 40 37 33 31 27 22 18 14 11 10 9
0 0 0 0 1 1 1 2 3 6 10 11 10 8 8 11 15 16 16 14 14 17 21 24 27 30 33 38 42 44 46 46 44 44 42 38 33 26 19 15 12 10 9 8
0 0 0 0 1 2 3 4 5 7 11 12 11 9 9 11 14 15 14 12 12 13 18 25 30 33 36 39 43 48 52 52 49 48 46 40 32 23 13 7 5 4 4 4
0 0 0 0 1 2 4 5 5 7 9 10 8 8 10 13 14 13 13 13 13 15 19 24 28 30 32 36 40 44 47 47 46 46 44 39 31 22 13 6 2 0 0 0
0 0 0 0 0 1 2 3 4 6 7 7 8 9 12 15 14 11 11 12 14 16 18 20 21 22 24 29 35 36 34 34 37 39 37 32 27 21 16 10 6 3 1 0
0 0 0 1 0 0 1 2 3 5 7 8 10 11 13 13 12 10 10 10 11 13 14 14 15 17 20 24 27 26 24 24 28 31 29 25 22 18 14 12 10 8 4 2
1 0 1 1 0 0 1 1 3 6 7 9 11 12 12 11 10 9 10 10 9 10 12 13 14 17 20 20 20 20 19 19 20 22 23 22 20 16 13 11 10 9 6 4
1 1 2 2 1 1 1 1 3 5 7 9 10 11 12 11 9 8 9 9 8 9 10 13 15 17 18 18 17 17 17 16 15 18 21 22 21 17 13 11 10 8 6 4
1 2 3 3 3 2 2 3 3 5 6 7 9 10 11 10 8 7 6 6 6 6 7 9 11 14 16 16 15 14 14 14 14 15 18 19 19 16 13 11 9 7 4 2
0 1 2 3 3 2 2 2 3 4 5 5 6 7 7 7 5 4 4 3 2 3 4 4 6 9 12 12 11 11 12 11 11 11 11 12 13 12 10 9 7 5 2 1
0 0 1 1 1 1 1 1 1 2 2 2 3 4 4 4 3 2 2 1 0 1 1 2 3 4 6 6 6 8 8 7 7 7 7 8 9 8 6 5 3 1 0 0
0 0 0 0 0 0 0 0 0 0 0 0 1 2 2 2 1 1 1 0 0 0 0 1 2 1 1 1 2 3 4 4 4 5 6 6 6 5 4 2 1 1 0 0
0 0 0 0 0 0 0 0 0 0 0 0 1 1 1 1 0 0 0 0 0 0 0 0 0 0 0 0 0 1 1 1 2 3 4 4 4 3 3 3 2 2 1 1
0 0 0 0 0 0 0 0 0 0 0 0 0 0 0 0 0 0 0 0 0 0 0 0 0 0 0 0 0 0 0 0 1 2 3 3 3 3 3 3 3 3 2 2
0 0 0 0 0 0 0 0 0 0 0 0 0 0 0 0 0 0 0 0 0 0 0 0 0 0 0 0 0 0 0 0 1 2 2 2 2 2 2 2 2 2 2 1
0 0 0 0 0 0 0 0 0 0 0 0 0 0 0 0 0 0 0 0 0 0 0 0 0 0 0 0 0 0 0 0 0 1 1 1 1 1 1 1 1 1 1 0
0 0 0 0 0 0 0 0 0 0 0 0 0 0 0 0 0 0 0 0 0 0 0 0 0 0 0 0 0 0 0 0 0 0 0 0 0 0 0 0 0 0 0 0
0 0 0 0 0 0 0 0 0 0 0 0 0 0 0 0 0 0 0 0 0 0 0 0 0 0 0 0 0 0 0 0 0 0 0 0 0 0 0 0 0 0 0 0

GEFSNGP_con_probscp_168.txt.gz
Probability
0 0 0 0 0 0 0 0 0 0 0 1 2 2 3 5 9 15 21 29 37 41 40 38 35 29 24 19 17 16 14 11 10 9 7 5 4 4 4 4 2 1 1 1
0 0 0 0 0 0 0 0 0 1 1 1 3 4 5 7 10 15 20 27 37 43 43 40 35 30 26 25 24 22 17 13 10 7 6 4 3 4 5 5 3 2 1 1
0 0 0 0 0 0 1 1 2 3 4 3 4 7 8 11 14 17 21 29 40 45 46 43 38 33 30 31 30 26 20 15 10 7 5 4 4 5 6 6 5 4 2 1
1 1 0 0 0 0 2 4 5 5 5 5 7 9 11 15 21 25 29 36 43 47 47 44 39 36 34 33 31 26 20 15 10 8 7 7 7 9 11 10 8 7 6 3
1 1 0 0 0 0 2 5 8 9 8 7 8 10 14 22 31 37 40 43 46 48 47 45 44 42 38 33 28 23 19 17 13 12 13 14 15 17 18 17 14 12 11 9
2 1 0 0 0 0 2 6 12 15 16 14 12 14 21 30 39 44 45 47 49 52 52 52 55 54 43 33 27 23 21 22 22 24 26 26 27 27 25 22 18 15 15 16
2 1 0 2 3 5 8 11 15 17 20 21 20 20 26 34 38 39 41 43 48 55 57 58 65 64 51 40 34 31 29 31 35 37 37 36 37 37 31 25 22 19 18 19
5 4 5 6 9 13 17 17 13 12 15 19 21 21 23 25 27 29 33 36 44 54 59 61 65 65 58 49 44 41 40 42 44 44 41 40 42 42 37 30 24 20 18 19
8 9 10 11 12 14 17 14 9 7 9 11 15 17 16 14 16 23 30 35 42 50 57 59 59 59 58 52 47 45 46 47 48 45 43 43 45 44 40 34 25 19 18 18
6 7 9 9 9 9 9 7 6 6 7 8 11 13 13 14 19 27 33 38 42 47 52 54 54 54 53 51 48 45 45 47 48 47 46 48 48 44 39 34 28 24 23 21
2 2 4 6 6 5 4 4 5 7 8 9 12 15 16 20 27 32 35 38 41 43 45 47 48 49 50 52 51 46 45 46 48 49 48 49 48 41 33 28 25 23 22 19
1 1 2 4 4 3 3 3 5 8 11 14 17 20 21 24 29 32 35 38 40 39 36 37 40 43 47 52 52 47 44 44 46 47 48 48 44 36 26 18 12 10 10 9
1 1 1 2 2 2 3 4 5 8 12 16 19 22 24 25 26 29 32 34 35 32 29 29 32 35 41 47 47 45 42 40 41 42 43 44 39 32 25 16 8 4 2 1
1 1 1 1 2 2 3 4 5 6 9 12 17 20 22 22 24 27 28 28 27 25 23 23 25 28 33 39 40 38 36 34 34 34 35 35 33 30 26 21 16 11 5 1
1 1 2 2 3 2 3 5 6 5 6 9 13 17 19 20 22 24 24 23 21 20 19 18 19 22 24 27 28 28 27 27 27 27 27 28 27 26 25 24 22 19 11 5
0 1 3 3 3 3 3 5 6 6 7 10 13 15 17 19 21 21 20 20 20 20 18 17 17 18 18 17 17 18 18 19 19 20 21 22 23 24 24 24 22 20 15 10
1 2 3 3 3 3 4 6 7 9 11 13 14 15 16 18 19 18 17 17 18 19 18 17 17 16 15 13 12 12 13 15 15 17 18 20 21 23 24 23 20 18 14 11
3 4 4 5 4 5 7 9 10 12 14 15 16 16 17 18 18 16 15 15 16 16 16 15 15 15 14 13 11 11 13 15 16 17 18 18 19 20 20 18 16 14 11 7
4 5 6 7 7 9 10 10 10 11 14 16 16 15 15 15 14 13 12 12 12 12 11 11 11 13 14 13 11 11 13 15 16 16 16 15 15 14 13 12 9 8 5 3
3 3 4 6 7 8 9 8 7 8 11 13 13 12 12 10 9 9 8 8 8 8 7 7 9 11 12 11 9 10 12 13 13 12 11 11 10 9 8 6 5 3 2 1
2 1 2 2 3 5 5 5 4 4 6 8 8 8 8 6 6 6 6 6 6 5 4 5 6 7 7 6 5 5 7 8 7 7 7 6 6 5 4 4 3 2 1 0
1 0 0 0 1 1 2 1 1 1 2 3 3 3 4 3 3 3 3 3 3 3 3 3 3 2 2 2 2 1 2 2 2 3 3 3 3 3 3 3 2 2 1 0
0 0 0 0 0 0 0 0 0 0 0 1 1 1 1 1 1 1 1 1 1 1 1 1 1 0 0 0 0 0 0 0 0 1 1 2 2 3 3 2 1 1 0 0
0 0 0 0 0 0 0 0 0 0 0 0 0 0 0 0 0 0 0 0 0 0 0 0 0 0 0 0 0 0 0 0 0 0 0 1 1 1 1 1 1 0 0 0
0 0 0 0 0 0 0 0 0 0 0 0 0 0 0 0 0 0 0 0 0 0 0 0 0 0 0 0 0 0 0 0 0 0 0 0 0 0 0 0 0 0 0 0
0 0 0 0 0 0 0 0 0 0 0 0 0 0 0 0 0 0 0 0 0 0 0 0 0 0 0 0 0 0 0 0 0 0 0 0 0 0 0 0 0 0 0 0
0 0 0 0 0 0 0 0 0 0 0 0 0 0 0 0 0 0 0 0 0 0 0 0 0 0 0 0 0 0 0 0 0 0 0 0 0 0 0 0 0 0 0 0